Flag for United Kingdom Weather past 2 weeks in Chester, England, United Kingdom

Now
63 °F

Scattered showers. Scattered clouds.


Feels Like: 63 °F
Forecast: 57 / 65 °F
Wind: 15 mph from South

Location: Hawarden Airport

Current Time: Aug 3, 2015 at 7:43:06 AM

Latest Report: Aug 3, 2015 at 7:20 AM


Visibility: 6 mi

Pressure: 29.71 "Hg

Humidity: 77%

Dew point: 55 °F

Location of ChesterLocation

Historic Weather in Chester — Graph

°F

Chester temperature yesterday

Maximum temperature yesterday: 73 °F (at 3:50 PM)
Minimum temperature yesterday: 55 °F (at 8:20 AM)
Average temperature yesterday: 66 °F

Past Weeks' High & Low Weather Summary

 TemperatureHumidityPressure
High73 °F (Aug 2, 3:50 PM)94% (Jul 24, 6:50 AM)30.15 "Hg (Jul 24, 6:50 AM)
Low43 °F (Jul 31, 6:20 AM)41% (Aug 2, 3:50 PM)29.56 "Hg (Jul 28, 6:20 AM)
Average61 °F66%29.90 "Hg
* Reported Jul 19 8:20 AM — Aug 3 6:20 AM, Chester, Weather by CustomWeather, © 2015

Note: Actual official high and low records may vary slightly from our data, if they occured in-between our weather recording intervals... More about our weather records

Advertising

Chester weather history for previous 24 hours

 ConditionsComfort  
Time TempWeatherWind HumidityBarometerVisibility
6:20 AM
Mon, Aug 3
61 °FScattered showers. Passing clouds.6 mph68%29.68 "HgN/A
3:50 PM
Sun, Aug 2
73 °FPassing clouds.17 mph41%29.89 "HgN/A
3:20 PM72 °FPassing clouds.15 mph44%29.92 "HgN/A
2:50 PM72 °FPassing clouds.16 mph47%29.92 "HgN/A
2:20 PM72 °FPassing clouds.14 mph44%29.95 "HgN/A
1:50 PM70 °FPassing clouds.15 mph46%29.95 "HgN/A
1:20 PM70 °FScattered clouds.10 mph53%29.98 "HgN/A
12:50 PM70 °FScattered clouds.13 mph50%29.98 "HgN/A
12:20 PM68 °FScattered clouds.10 mph56%30.01 "HgN/A
11:50 AM66 °FScattered clouds.9 mph64%30.01 "HgN/A
11:20 AM64 °FScattered clouds.10 mph68%30.01 "HgN/A
10:50 AM64 °FScattered clouds.9 mph68%30.01 "HgN/A
10:20 AM63 °FPassing clouds.12 mph73%30.01 "HgN/A
9:50 AM61 °FPassing clouds.7 mph77%30.01 "HgN/A
9:20 AM59 °FScattered clouds.7 mph82%30.01 "HgN/A
8:50 AM57 °FPassing clouds.7 mph88%30.01 "HgN/A
8:20 AM55 °FPassing clouds.6 mph88%30.01 "HgN/A
Weather by CustomWeather, © 2015

See weather overviewHow to use our weather pages